Tampa, FL

6:54 AM EST on December 06, 2016 (GMT -0500)
MacDill Air Force Base

Weather History for KMCF - July, 2013

Change the Weather History Date:

Friday, July 26, 2013

  Actual Average Record
Temperature  
Mean Temperature 83 °F -  
Max Temperature 90 °F 88 °F 96 °F (1996)
Min Temperature 76 °F 73 °F 73 °F (2000)
Cooling Degree Days 18    
Growing Degree Days 33 (Base 50)    
Moisture  
Dew Point 78 °F    
Average Humidity 89    
Maximum Humidity 100    
Minimum Humidity 70    
Precipitation  
Precipitation 0.01 in - - ()
Sea Level Pressure  
Sea Level Pressure 30.01 in    
Wind  
Wind Speed 6 mph (NW)    
Max Wind Speed 12 mph    
Max Gust Speed 18 mph    
Visibility 10 miles    
Events Rain , Thunderstorm    
Averages and records for this station are not official NWS values.
T = Trace of Precipitation, MM = Missing Value Source: NWS Daily Summary

Daily Weather History Graph

Daily Weather History Graph

Search for Another Location

Airport or City:

Trip Planner

Search our weather history database for the weather conditions in past years. The results will help you decide how hot, cold, wet, or windy it might be!

Date:

Astronomy

Jul. 26, 2013 Rise Set
Actual Time 6:49 AM EDT 8:23 PM EDT
Civil Twilight 6:24 AM EDT 8:48 PM EDT
Nautical Twilight 5:53 AM EDT 9:19 PM EDT
Astronomical Twilight 5:21 AM EDT 9:51 PM EDT
Moon 11:08 PM EDT (7/26) 10:55 AM EDT (7/26)
Length of Visible Light 14h 24m
Length of Day
13h 33m
Waning Gibbous, 80% of the Moon is Illuminated
Jul 26
Waning Gibbous
Jul 29
Last Quarter
Aug 6
New
Aug 14
First Quarter
Aug 20
Full

Hourly Weather History & Observations

Time (EDT) Temp. Heat Index Dew Point Humidity Pressure Visibility Wind Dir Wind Speed Gust Speed Precip Events Conditions
12:00 AM 77.0 °F - 77.0 °F 100% 30.00 in 2.0 mi Variable 4.6 mph - N/A Rain , Thunderstorm Light Thunderstorms and Rain
12:02 AM 77.0 °F - 77.0 °F 100% 30.00 in 3.0 mi West 8.1 mph - N/A Rain , Thunderstorm Light Thunderstorms and Rain
12:11 AM 77.0 °F - 77.0 °F 100% 30.00 in 10.0 mi West 9.2 mph - N/A Rain Light Rain
12:25 AM 77.0 °F - 77.0 °F 100% 29.99 in 10.0 mi West 9.2 mph 18.4 mph N/A   Clear
12:58 AM 76.8 °F - 76.8 °F 100% 29.99 in 10.0 mi West 5.8 mph - 0.01 in Thunderstorm Partly Cloudy
1:51 AM 77.0 °F - 77.0 °F 100% 29.98 in 10.0 mi West 2.3 mph - N/A   Light Drizzle
1:58 AM 76.8 °F - 76.8 °F 100% 29.99 in 10.0 mi WNW 2.3 mph - 0.00 in   Light Drizzle
2:01 AM 77.0 °F - 77.0 °F 100% 29.97 in 10.0 mi WNW 2.3 mph - N/A   Clear
2:58 AM 78.3 °F - 78.3 °F 100% 30.00 in 10.0 mi WSW 5.8 mph - 0.00 in   Partly Cloudy
3:58 AM 78.6 °F - 78.6 °F 100% 29.98 in 10.0 mi West 3.5 mph - N/A   Partly Cloudy
4:58 AM 78.3 °F - 78.3 °F 100% 29.97 in 10.0 mi NW 4.6 mph - N/A   Clear
5:58 AM 78.3 °F - 78.3 °F 100% 29.98 in 10.0 mi NW 4.6 mph - N/A   Clear
6:58 AM 78.4 °F - 78.4 °F 100% 30.00 in 10.0 mi North 4.6 mph - N/A   Partly Cloudy
7:58 AM 79.5 °F - 79.5 °F 100% 30.03 in 10.0 mi ENE 2.3 mph - N/A   Clear
8:58 AM 84.4 °F 104.3 °F 84.4 °F 100% 30.04 in 10.0 mi Variable 4.6 mph - N/A   Partly Cloudy
9:58 AM 87.3 °F 103.8 °F 80.6 °F 80% 30.02 in 10.0 mi North 6.9 mph - N/A   Clear
10:58 AM 87.8 °F 104.9 °F 80.6 °F 79% 30.03 in 10.0 mi NW 8.1 mph - N/A   Scattered Clouds
11:58 AM 87.3 °F 99.8 °F 77.7 °F 73% 30.03 in 10.0 mi NW 5.8 mph - N/A   Mostly Cloudy
12:37 PM 89.6 °F 104.7 °F 78.8 °F 70% 30.03 in 10.0 mi Variable 6.9 mph - N/A   Light Drizzle
12:46 PM 89.6 °F 104.7 °F 78.8 °F 70% 30.03 in 10.0 mi NNW 9.2 mph - N/A   Clear
12:58 PM 90.0 °F 106.5 °F 79.5 °F 71% 30.03 in 10.0 mi Variable 6.9 mph - 0.00 in   Partly Cloudy
1:58 PM 89.1 °F 104.4 °F 79.2 °F 72% 30.03 in 10.0 mi NNW 11.5 mph - N/A   Mostly Cloudy
2:58 PM 90.0 °F 105.8 °F 79.2 °F 70% 30.01 in 10.0 mi NNW 9.2 mph - N/A Thunderstorm Clear
3:31 PM 84.2 °F 96.1 °F 78.8 °F 84% 29.99 in 10.0 mi North 10.4 mph 18.4 mph N/A Rain Light Rain
3:48 PM 82.4 °F 92.4 °F 78.8 °F 89% 30.00 in 10.0 mi NW 4.6 mph - N/A Thunderstorm Mostly Cloudy
3:58 PM 82.4 °F 92.1 °F 78.6 °F 88% 30.01 in 10.0 mi NNW 3.5 mph - 0.00 in Thunderstorm Scattered Clouds
4:58 PM 84.7 °F 95.6 °F 77.7 °F 79% 30.01 in 10.0 mi Calm Calm - N/A   Mostly Cloudy
5:58 PM 87.1 °F 99.3 °F 77.4 °F 73% 30.00 in 10.0 mi NNW 6.9 mph - N/A   Scattered Clouds
6:58 PM 87.6 °F 100.8 °F 78.1 °F 73% 29.98 in 10.0 mi NW 8.1 mph - N/A   Clear
7:58 PM 84.7 °F 96.1 °F 77.9 °F 80% 29.98 in 10.0 mi NNW 5.8 mph - N/A   Clear
8:58 PM 82.4 °F 91.5 °F 77.9 °F 86% 29.99 in 10.0 mi NNW 4.6 mph - N/A   Clear
9:58 PM 81.1 °F 88.9 °F 77.9 °F 90% 30.01 in 10.0 mi NNW 3.5 mph - N/A   Clear
10:58 PM 80.1 °F 86.4 °F 78.1 °F 94% 30.02 in 10.0 mi North 3.5 mph - N/A   Clear
11:55 PM 78.8 °F - 77.0 °F 94% 30.02 in 10.0 mi Calm Calm - N/A   Light Drizzle
11:58 PM 78.8 °F - 77.7 °F 96% 30.03 in 10.0 mi Calm Calm - 0.00 in   Light Drizzle
11:59 PM 78.8 °F - 78.8 °F 100% 30.02 in 10.0 mi Calm Calm - N/A   Clear